Regional Weather Roundup
Issued by NWS

Home | Current Version | Previous Version | Text Only | Print | Product List | Glossary Off
Versions: 1 2 3 4 5 6 7 8 9 10 11 12 13 14 15 16 17 18 19 20 21 22 23 24 25 26 27 28 29 30 31 32 33 34 35 36 37 38 39 40 41 42 43 44 45 46 47 48 49 50

000
ASUS45 KBOU 080507
RWRCO

WEATHER ROUNDUP FOR COLORADO
NATIONAL WEATHER SERVICE DENVER/BOULDER CO
1000 PM MST WED DEC 07 2016

NOTE: "FAIR" INDICATES FEW OR NO CLOUDS BELOW 12000 FEET WITH NO
SIGNIFICANT WEATHER AND/OR OBSTRUCTIONS TO VISIBILITY.

COZ001>005-013-030-031-080600-
...NORTHWEST COLORADO...

CITY           SKY/WX    TMP DP  RH WIND       PRES   REMARKS
CRAIG          FAIR      -5 -12  72 CALM      30.31R
HAYDEN         FAIR       1  -6  71 E9        30.27R WCI -14
MEEKER         FAIR      -4  -9  79 VRB6      30.28R WCI -16
MOUNT WERNER   NOT AVBL
STEAMBOAT SPGS FAIR      -3  -6  84 CALM      30.27R
WALDEN           N/A    -15 -22  70 SE6       30.20R WCI -29
$$

COZ006>008-011-080600-
...WEST CENTRAL VALLEYS...

CITY           SKY/WX    TMP DP  RH WIND       PRES   REMARKS
GRAND JUNCTION FAIR      21  10  62 W5        30.28R WCI  15
MONTROSE       FAIR      14   6  70 SE10      30.30R WCI   1
EAGLE          FAIR       3  -4  72 SE5       30.32R WCI  -6
RIFLE          FAIR      12   4  70 SE5       30.32R WCI   4
DELTA          NOT AVBL
NUCLA          FAIR      18   3  53 E10       30.28R WCI   6
$$

COZ017>023-064>068-080600-
...SOUTHWEST COLORADO...

CITY           SKY/WX    TMP DP  RH WIND       PRES   REMARKS
DURANGO        FAIR      15   1  53 N8        30.19R WCI   4
CORTEZ         FAIR      12   8  84 NE8       30.24R WCI   0
PAGOSA SPRINGS FAIR      12  -2  52 N3        30.19R
TELLURIDE      FAIR       5  -3  70 SE7       30.14S WCI  -7
WOLF CREEK PAS FAIR       0  -6  78 S18G25    30.07R WCI -22
$$

COZ009-010-012-014-032>034-037-058>063-080600-
...CENTRAL COLORADO...

CITY           SKY/WX    TMP DP  RH WIND       PRES   REMARKS
ASPEN          FAIR       5  -2  72 SE7       30.20R WCI  -7
BUENA VISTA    FAIR       4  -8  59 NE3       30.19R
COPPER MTN     FAIR      -6 -15  65 MISG      29.97S
BERTHOUD PASS  FAIR     -13 -24  58 MISG      29.90R HAZE
COTTONWOOD PAS FAIR       9  -4  56 CALM      30.09R
GUNNISON       FAIR       5  -5  63 NE3       30.22R
KREMMLING      FAIR      -4  -9  77 CALM      30.27R
LEADVILLE      FAIR      -8 -14  74 E6        30.07R WCI -21
MONARCH PASS   FAIR      -4  -8  84 W28       30.09R WCI -30
SALIDA         FAIR      10   4  79 S7        30.29R WCI  -1
SUNLIGHT       FAIR     N/A N/A N/A S5        30.11S
WILKERSON PASS FAIR      -2 -11  65 NW6       30.03R WCI -14
$$

COZ069>075-080600-
...SAN LUIS VALLEY/SANGRE DE CRISTO MOUNTAINS...

CITY           SKY/WX    TMP DP  RH WIND       PRES   REMARKS
ALAMOSA        FAIR       4  -3  73 W6        30.18R WCI  -7
LA VETA PASS   FAIR       0  -6  78 N5        30.09R FOG     WCI -10
SAGUACHE       FAIR      12   0  57 N8        30.18R WCI   1
$$

COZ035-036-038>040-080600-
...NORTHERN COLORADO FRONT RANGE...

CITY           SKY/WX    TMP DP  RH WIND       PRES   REMARKS
DENVER INTL AP FAIR      -7 -11  83 SE6       30.37R WCI -20
DMNS CITY PARK   N/A      6   2  83 E8        30.39R WCI  -7
AURORA         PTCLDY     0  -4  85 SE6       30.36R WCI -12
FRONT RANGE AP NOT AVBL
ERIE MUNI ARPT FAIR      -6 -11  81 CALM      30.40R FOG
BOULDER MUN AP CLOUDY     5   3  92 SW3       30.38R
CENTENNIAL     FAIR       4   0  83 E3        30.33R
BROOMFIELD     MOCLDY     7   3  85 CALM      30.35R
FORT COLLINS   FAIR       3  -2  78 S6        30.41R WCI  -8
LONGMONT       CLOUDY     7   3  82 CALM      30.42S
$$

COZ041-046-047-076>085-087-088-080600-
...PIKES PEAK/PALMER DIVIDE AND SOUTHERN FOOTHILLS...

CITY           SKY/WX    TMP DP  RH WIND       PRES   REMARKS
COLO. SPRINGS  LGT SNOW   9   5  84 SW7       30.33R FOG     WCI  -2
A. F. ACADEMY  CLOUDY     2  -2  82 N3        30.28R
SCHRIEVER AFB  NOT AVBL
ELLICOTT       LGT RAIN N/A N/A N/A CALM        N/A
FALCON         LGT SNOW   8   6  90 SW8       30.28R WCI  -4
FORT CARSON    LGT SNOW   9   5  85 S5        30.34R WCI   0
LIMON          FAIR      -2  -4  91 N7        30.38R WCI -15
MONUMENT HILL  FAIR      -2  -6  84 S5        30.26R WCI -12
TRINIDAD       CLOUDY    16   7  67 NE3       30.35R
$$

COZ042>045-048>051-090-091-080600-
...NORTHEAST COLORADO...

CITY           SKY/WX    TMP DP  RH WIND       PRES   REMARKS
GREELEY ARPT   FAIR      -8 -13  78 CALM      30.45R
AKRON          FAIR      -6 -10  83 SW7       30.43R WCI -20
BURLINGTON     FAIR       1  -5  75 NW13      30.45S WCI -17
WRAY           NOT AVBL
STERLING       FAIR       0  -8  71 NW12      30.46R WCI -18
HOLYOKE        FAIR       0  -8  71 W9        30.49R WCI -16
FORT MORGAN    FAIR      -5 -10  79 W6        30.45R WCI -17
$$

COZ086-089-092>099-080600-
...SOUTHEAST COLORADO...

CITY           SKY/WX    TMP DP  RH WIND       PRES   REMARKS
PUEBLO         CLOUDY    15   7  70 E8        30.43R WCI   4
LA JUNTA       CLOUDY    16   6  65 NE8       30.47R WCI   5
LAMAR          CLOUDY    12   6  77 CALM      30.49R
SPRINGFIELD      N/A     13   8  81 N10       30.43R WCI   0
$$



USA.gov is the U.S. government's official web portal to all federal, state and local government web resources and services.